RH
32 32 32 29 25 21 19 17 17 17 16 16 16 16 16 16 15 14 12 12 12 12 13 12 11 10 11 12 12 12 12 13 13 13 13 13 12 12 12 12 10 9 7 6 5 6 5 5 6 5 6 6 6 7 6 7 8 9 10 11 12 12 13 12 13 14 15 23 24 36 47 42 72 104 97 104 104 75 58 57 55 45 35 37 49 55 49 52
33 34 33 32 29 25 21 18 17 17 17 16 16 16 16 16 15 14 13 12 13 12 12 13 12 11 11 11 11 12 12 12 12 12 13 13 12 12 12 11 12 11 10 9 7 6 6 5 6 6 6 6 5 6 6 7 7 8 9 9 11 11 12 12 13 15 14 17 22 27 33 38 63 91 96 100 88 60 49 48 42 34 38 45 45 37 31 39
35 35 34 34 32 29 25 21 18 17 17 17 16 17 16 16 16 14 13 13 13 12 12 13 12 12 11 11 10 11 12 11 12 12 13 13 12 12 12 11 11 12 11 11 10 8 7 6 6 6 6 6 6 6 7 7 7 7 8 8 9 9 10 11 12 15 15 17 23 25 30 35 41 56 69 69 57 43 36 34 35 38 44 43 34 27 29 36
37 37 37 36 35 33 30 25 21 18 17 17 17 17 16 16 16 15 14 13 13 13 13 12 12 13 12 12 11 10 11 11 11 11 11 12 12 12 12 12 12 12 12 11 11 11 10 9 8 7 7 6 6 6 6 6 7 7 8 8 8 9 8 10 11 12 14 17 23 26 26 27 29 37 42 40 37 31 28 32 37 39 35 29 26 28 32 33
42 41 41 40 39 36 33 30 25 21 19 18 17 17 17 17 16 15 14 13 13 13 13 13 12 13 13 12 11 11 10 11 11 10 11 12 12 13 12 12 12 12 12 12 12 11 11 11 10 10 9 8 7 7 6 6 7 6 7 8 7 8 8 9 10 10 13 16 21 27 27 24 24 27 30 33 30 28 33 36 34 32 26 21 22 26 32 37
48 47 47 47 45 41 37 34 30 26 22 19 18 18 17 17 16 16 15 14 13 13 13 13 13 13 13 13 12 11 10 10 11 10 10 11 11 11 12 12 12 12 12 12 13 12 12 11 11 11 10 10 10 9 9 7 7 6 6 6 7 7 7 8 9 10 12 14 19 24 26 24 22 22 27 28 28 36 41 33 27 25 22 20 21 28 42 49
51 49 50 51 50 47 42 38 34 30 26 23 20 19 18 17 17 16 15 15 14 13 13 13 13 13 13 13 13 11 11 11 11 10 10 11 11 10 11 11 11 12 12 13 13 12 13 12 11 11 10 10 11 11 11 10 9 9 8 7 7 6 7 8 8 9 10 12 17 21 22 21 21 21 21 26 38 45 35 28 24 20 25 24 19 28 41 40
55 53 53 54 53 51 47 43 38 34 29 26 23 21 20 18 18 17 16 16 15 14 14 13 13 13 13 13 13 12 12 12 10 10 11 10 11 10 10 11 11 11 11 12 12 12 13 13 12 12 11 10 10 11 10 11 11 11 12 10 9 8 8 8 7 7 9 11 18 25 28 27 25 22 25 39 50 39 22 23 18 16 37 42 27 24 25 21
57 55 54 53 51 49 47 44 40 37 33 29 26 24 22 21 19 18 17 16 15 15 15 14 13 13 13 12 12 12 12 12 11 10 11 10 10 10 10 10 11 11 11 11 11 12 12 11 12 13 13 12 11 11 10 10 11 12 14 15 14 14 12 11 11 10 12 16 20 25 30 37 44 48 56 64 54 30 15 15 13 21 45 53 43 32 20 16
47 46 44 43 43 42 41 39 38 36 34 31 28 26 24 23 22 21 19 17 15 15 15 14 14 14 13 13 12 12 13 12 11 11 10 10 10 10 10 10 10 10 11 11 11 11 11 11 12 13 14 14 13 12 11 10 11 11 14 16 16 17 17 17 16 16 17 18 19 27 42 60 79 86 82 76 57 31 17 12 12 21 33 37 40 34 21 16
36 36 36 35 35 34 34 34 33 32 31 30 28 27 25 24 24 23 22 21 18 16 15 14 14 14 13 14 12 11 13 12 11 11 10 10 10 10 10 10 10 10 11 11 11 10 11 11 11 12 13 13 12 12 12 11 12 11 12 14 14 15 18 19 21 21 21 23 32 53 77 90 99 96 82 73 57 31 16 12 11 15 19 22 27 26 19 25
29 31 31 31 31 31 30 30 29 29 28 28 27 26 25 25 24 24 23 23 21 19 17 15 13 13 13 13 12 12 13 12 11 10 10 10 10 10 10 10 9 10 10 10 11 11 10 11 11 12 12 12 12 12 11 10 12 12 12 12 11 12 14 18 26 31 34 47 66 84 98 100 95 85 72 64 49 26 15 11 10 11 12 17 21 23 27 42
20 22 23 24 25 26 26 27 27 26 26 26 26 26 25 25 24 24 24 23 22 21 19 17 15 13 13 12 10 12 12 11 11 10 10 10 10 10 9 10 10 9 10 10 10 11 10 11 11 11 11 12 13 12 11 10 12 13 12 11 11 11 10 13 23 37 52 74 90 95 99 97 83 69 59 50 35 22 17 11 10 9 10 14 15 26 40 47
16 16 16 16 17 17 18 19 20 21 22 23 23 24 24 24 24 23 24 23 22 21 20 18 16 14 13 12 9 11 12 11 11 10 9 10 9 10 9 9 10 10 10 10 10 10 11 10 11 11 11 12 13 12 11 11 12 13 13 12 11 12 11 11 16 30 55 81 93 89 82 75 61 46 39 33 21 19 19 12 9 10 13 13 12 32 45 42
21 19 18 17 15 15 14 14 14 14 15 16 17 18 19 20 21 21 21 22 21 20 19 18 16 14 13 11 9 10 12 11 10 9 9 10 10 10 10 9 9 9 9 9 10 10 10 11 11 11 11 11 12 12 12 12 13 13 13 13 11 11 11 12 12 16 30 48 59 57 47 38 30 23 19 17 13 15 17 12 10 11 13 13 19 40 41 36
29 27 25 23 21 20 18 16 15 14 12 12 12 12 13 14 15 16 17 17 17 17 17 16 15 13 13 11 9 10 11 11 10 9 9 9 9 10 9 9 9 9 9 9 9 9 10 11 11 11 11 11 12 13 12 12 14 13 13 13 12 11 10 11 12 11 13 16 20 20 18 16 14 13 13 12 11 12 14 13 11 11 13 18 29 37 35 35
32 31 29 27 26 26 24 22 20 19 17 15 14 12 11 11 11 11 12 12 12 13 13 13 13 12 12 11 9 10 11 11 10 9 10 9 8 9 10 9 8 9 9 9 9 9 9 10 11 11 11 12 12 12 12 13 14 13 12 12 11 12 11 11 11 11 11 12 11 10 11 12 12 13 14 13 11 12 16 15 12 12 16 24 28 26 30 40
29 29 29 28 28 28 28 26 25 24 23 21 19 17 15 13 12 11 11 11 10 10 10 11 11 11 13 12 10 10 10 11 11 10 10 10 9 9 10 10 9 9 9 9 9 9 9 9 10 11 11 12 12 12 13 13 12 11 11 11 11 11 11 12 11 10 10 11 11 11 10 11 12 12 14 14 13 12 14 14 12 13 17 24 25 21 28 39
21 22 23 24 25 26 27 27 27 27 26 25 22 21 20 17 16 15 14 14 12 11 11 10 11 12 14 14 11 10 10 11 12 12 11 11 10 9 10 10 9 9 9 9 9 9 9 9 9 10 12 12 12 12 12 12 11 11 11 11 11 11 12 12 12 12 11 11 11 11 10 10 11 12 13 14 13 12 12 12 12 13 17 24 26 22 24 30
16 17 17 17 18 19 21 22 23 25 26 26 25 23 23 22 20 19 19 19 17 14 13 13 12 14 17 17 14 10 10 12 12 13 13 12 11 11 10 10 10 9 10 10 9 9 9 8 10 12 12 11 11 11 12 11 11 12 12 12 12 12 12 12 12 13 12 12 12 11 10 11 11 12 13 13 12 12 11 11 11 13 18 24 26 24 20 20
16 16 16 16 16 15 15 15 16 18 20 22 24 24 24 24 23 22 22 23 23 19 17 17 15 17 22 21 16 12 11 12 14 14 14 13 12 12 12 12 11 10 12 12 9 9 8 9 13 14 11 10 10 11 11 11 12 12 12 13 13 13 13 13 13 13 13 13 12 11 10 11 12 12 12 13 13 12 12 13 12 12 13 17 23 27 20 15
13 13 14 15 15 15 15 14 14 14 14 15 17 19 21 22 24 24 24 26 27 23 21 21 19 21 28 26 18 13 12 13 16 16 15 15 13 13 14 14 13 13 12 11 9 9 9 13 17 13 10 9 10 10 11 11 11 12 12 13 14 14 14 13 13 13 14 14 13 11 10 10 11 11 12 13 13 13 13 13 13 13 12 12 17 26 25 17
14 13 12 13 12 13 13 14 14 14 14 13 13 13 15 16 18 20 23 26 29 25 21 23 23 24 31 31 22 14 15 16 17 17 15 15 15 15 16 16 16 16 12 10 10 11 13 18 16 10 8 9 9 10 10 11 11 12 13 14 15 15 14 13 13 13 14 14 13 11 10 10 10 10 11 12 13 13 13 14 14 13 14 13 13 21 27 21
15 15 14 14 13 12 12 11 12 12 12 13 13 12 12 12 13 14 16 20 24 25 23 22 24 27 31 33 26 18 20 21 19 19 17 16 17 16 16 17 19 18 14 12 11 12 16 19 14 9 9 9 9 10 11 12 13 13 14 15 16 15 15 14 13 12 13 13 13 12 11 10 10 10 11 12 12 13 14 14 15 13 14 15 12 15 23 23
16 16 15 16 15 14 14 13 11 11 10 10 11 12 12 12 12 12 13 15 18 20 21 20 21 25 29 32 29 23 24 26 24 25 22 19 19 18 18 19 20 19 17 15 13 14 18 19 14 11 11 10 10 11 12 13 14 14 15 16 17 15 14 13 12 12 13 14 14 13 12 11 11 10 11 12 12 13 14 14 15 15 15 16 14 14 16 20
18 17 16 15 15 15 14 14 14 12 12 10 9 9 10 10 11 12 13 14 15 15 16 17 18 20 23 27 29 26 25 29 32 30 26 22 20 19 18 18 19 20 20 18 15 15 18 19 15 13 13 12 11 11 13 15 15 16 17 18 17 15 13 12 11 12 13 14 14 14 13 12 11 10 11 12 13 13 14 16 16 15 16 16 16 15 14 15
23 20 19 17 16 15 14 13 13 13 13 12 11 10 9 9 9 9 11 13 14 14 14 14 15 17 17 19 24 25 25 30 34 33 31 30 26 23 20 18 19 20 21 19 16 17 20 19 16 16 16 15 14 14 15 16 17 19 18 18 16 14 13 11 11 12 13 14 14 14 14 13 12 11 11 13 14 14 15 17 17 17 17 16 15 16 15 14
25 23 22 19 17 15 15 13 11 11 11 11 11 11 11 10 9 8 9 10 11 12 13 13 14 15 16 16 17 20 22 25 30 31 32 33 31 27 23 20 20 21 21 19 18 21 23 20 17 17 17 17 17 17 17 16 17 19 17 16 16 14 13 11 10 10 12 12 12 13 14 13 13 13 12 13 14 16 17 17 16 17 18 16 16 16 16 15
23 23 21 19 17 15 13 13 12 10 9 9 9 10 10 11 11 10 10 11 10 9 11 12 12 13 15 16 16 16 17 20 24 25 26 28 29 27 25 23 23 24 23 19 19 23 22 19 18 16 16 18 19 17 16 16 17 18 17 16 16 15 14 12 10 11 11 10 11 13 14 14 15 15 14 13 15 18 19 17 15 17 18 17 17 16 16 17
23 22 21 19 17 14 13 12 11 10 9 9 8 8 8 9 9 10 11 12 11 10 11 11 11 11 12 14 16 15 14 16 19 21 21 24 27 27 27 26 26 26 25 21 19 22 21 18 17 15 15 18 19 17 16 17 18 17 15 15 16 15 14 12 11 10 9 9 11 13 15 16 16 17 15 13 15 18 16 15 15 17 19 18 17 18 17 17
21 20 19 18 16 15 14 12 11 10 10 9 9 8 7 7 7 8 9 10 11 12 13 13 12 11 10 11 13 14 15 16 17 18 17 18 22 25 26 26 25 25 25 23 20 21 21 19 16 16 17 17 17 17 17 18 18 18 16 16 15 15 15 13 12 11 9 10 13 14 16 19 20 20 17 14 14 15 14 14 15 18 19 18 16 18 19 18
20 19 17 16 15 14 13 13 11 10 10 10 9 9 8 7 7 6 7 7 9 10 12 14 15 13 10 8 9 11 13 15 16 16 15 14 16 19 21 23 24 25 26 27 27 26 26 23 20 20 20 19 18 18 18 18 18 18 17 17 16 15 15 14 13 12 11 13 17 19 19 20 22 23 17 13 13 13 13 13 15 18 19 18 16 17 19 19
21 19 17 15 13 12 12 11 10 10 9 9 9 9 8 8 7 6 6 6 7 8 9 12 14 14 12 9 8 9 10 13 15 16 15 15 16 17 19 21 22 23 27 30 32 33 35 33 29 27 25 23 21 20 20 20 21 21 20 19 19 18 18 19 19 17 16 19 22 23 21 18 19 22 17 12 13 13 11 11 13 18 19 19 18 17 19 20
21 19 17 14 12 11 10 9 8 8 7 7 7 7 7 7 7 6 6 6 5 6 7 9 11 13 13 12 10 8 9 10 12 14 16 16 17 19 20 19 20 21 23 27 28 30 34 36 34 32 32 30 28 26 26 27 29 30 30 28 27 25 25 25 24 20 20 24 25 21 18 16 17 22 18 12 11 11 10 11 14 18 21 21 21 19 19 21
18 15 13 11 9 8 7 6 6 6 5 5 5 5 5 5 5 5 5 6 5 5 6 7 8 10 11 13 12 10 10 10 9 11 14 15 15 18 21 22 22 21 19 20 21 23 28 31 32 32 33 35 37 36 35 33 34 35 33 30 28 27 27 26 25 24 23 23 22 17 16 17 17 18 17 11 10 11 11 13 15 19 22 23 23 21 20 21
13 11 9 9 7 7 6 6 6 5 5 5 4 4 4 4 4 4 4 4 4 5 5 5 7 8 9 10 12 12 11 11 10 9 10 13 14 15 18 21 21 18 14 13 16 19 23 28 31 31 30 32 35 37 38 36 35 36 34 31 30 29 28 27 28 28 25 23 21 18 19 20 17 16 17 14 13 14 14 15 17 20 23 23 23 22 20 20
10 9 9 9 7 7 6 6 6 5 4 4 4 4 4 4 3 3 3 3 3 3 4 5 6 7 7 8 10 12 12 12 12 11 9 10 12 13 15 17 18 16 13 13 16 18 21 26 29 29 29 30 31 33 34 34 34 35 34 33 32 30 28 27 27 26 23 23 23 22 22 22 19 18 20 18 17 16 15 16 18 21 22 22 22 21 19 18
10 9 9 8 7 6 6 5 5 5 4 3 4 3 3 3 3 3 3 3 3 3 3 4 4 5 6 7 8 10 11 11 12 13 11 9 10 12 13 14 16 15 15 16 19 19 20 23 26 26 26 28 29 30 30 30 31 32 33 33 31 30 28 25 25 24 24 24 25 25 24 22 21 21 21 19 17 17 16 17 18 20 22 22 20 19 17 16
10 9 8 8 7 5 5 5 5 5 4 3 3 3 3 2 2 2 2 2 3 3 3 3 3 4 5 6 7 8 10 11 10 12 13 11 10 10 11 13 13 14 14 16 20 22 20 21 23 24 25 26 26 26 25 27 28 28 28 28 28 28 27 25 24 24 24 25 25 24 23 22 23 24 22 19 18 17 17 18 19 21 22 21 19 17 16 16
10 9 8 7 7 6 5 5 5 5 5 4 4 3 3 2 2 2 2 2 2 2 3 3 2 3 4 5 6 7 8 9 9 10 12 13 12 10 10 11 12 13 14 15 18 20 21 22 24 25 25 25 23 22 22 25 26 26 24 24 25 24 24 23 22 22 22 21 22 21 21 23 25 24 21 19 19 18 16 17 19 21 22 21 19 16 16 15
9 7 7 8 8 7 6 5 4 4 4 4 3 3 3 3 2 2 1 1 2 2 2 2 2 2 3 3 4 6 7 8 8 8 10 12 13 12 11 10 11 12 13 15 16 17 18 21 25 26 25 23 22 21 25 27 26 25 24 24 25 24 24 23 22 23 24 24 24 23 23 26 26 23 21 20 20 19 17 17 19 21 22 20 18 16 16 15
9 7 6 8 10 10 9 7 5 5 4 4 3 3 3 3 2 2 2 1 1 2 1 2 2 2 2 3 3 4 6 7 7 8 8 10 12 13 13 12 11 11 12 14 15 16 17 21 28 31 27 24 24 25 27 28 26 25 24 25 26 26 25 24 24 27 29 30 29 28 28 30 29 26 24 23 23 22 20 18 20 21 20 19 18 16 16 15
13 11 9 8 10 10 8 7 5 4 4 4 3 3 2 2 2 2 2 2 1 1 1 2 2 2 2 2 3 3 4 6 7 7 7 9 11 12 13 14 13 11 11 12 14 15 17 21 28 34 33 30 30 32 30 26 23 23 22 23 25 25 24 24 25 28 29 29 28 27 30 33 33 31 29 26 25 25 23 21 21 21 19 18 17 16 15 15
18 20 15 11 11 9 8 7 6 4 4 3 3 3 2 2 2 2 2 2 2 1 1 1 1 2 2 2 2 3 3 5 6 7 7 7 9 11 12 14 15 14 12 11 12 15 16 19 24 30 34 35 34 36 35 28 23 21 20 22 25 27 26 24 24 25 24 25 25 24 28 32 32 31 30 28 26 25 24 23 21 20 19 17 17 16 15 14
22 26 23 18 14 11 8 8 7 6 5 4 3 3 3 2 2 2 2 2 2 2 1 1 2 1 1 2 2 2 3 4 5 6 7 7 8 10 12 13 15 16 14 11 11 14 15 17 21 25 30 34 33 34 35 32 28 25 23 22 25 28 26 23 24 24 23 23 24 25 30 33 33 32 31 28 27 26 24 23 21 19 18 17 16 15 14 14
23 26 26 24 19 13 9 7 6 6 5 4 3 3 3 3 2 2 2 2 2 2 1 2 1 1 1 1 2 2 2 3 4 5 6 7 7 9 11 12 14 16 15 12 11 13 15 16 19 21 24 28 31 32 33 32 31 30 28 26 25 26 26 24 24 25 27 27 26 28 33 35 33 32 31 30 28 27 25 23 21 19 18 17 16 15 14 13
25 24 23 23 22 18 12 7 5 5 4 3 3 3 3 2 2 2 2 2 2 1 2 2 1 1 1 1 1 2 2 2 3 4 5 6 7 8 10 11 13 15 16 14 12 13 15 16 17 18 19 23 27 31 32 30 29 30 30 29 28 29 29 26 24 27 31 31 29 31 35 35 33 30 30 30 29 27 25 22 20 19 18 17 16 15 14 12
27 24 19 18 18 18 15 9 6 4 3 3 3 3 3 2 2 2 2 2 2 2 2 1 2 1 1 1 1 1 2 2 3 3 4 6 7 8 10 11 12 14 15 15 14 13 14 15 16 17 18 21 24 29 31 31 31 33 32 28 27 31 34 32 30 33 35 34 33 34 35 36 33 29 29 30 29 27 24 22 20 19 18 17 16 15 14 13
29 25 22 19 18 16 13 8 5 4 3 3 3 3 2 2 2 2 2 2 1 2 2 1 2 2 1 1 1 1 2 2 2 3 4 5 7 8 10 11 11 13 15 16 15 15 14 15 16 17 19 21 24 26 29 30 33 38 38 33 29 31 36 40 40 38 38 38 38 36 35 36 32 28 29 31 30 27 24 22 21 20 18 18 17 15 14 13
31 28 26 23 20 16 11 7 4 4 3 3 3 3 2 2 2 2 2 2 2 2 2 2 2 2 1 1 1 2 2 1 2 3 3 5 6 7 9 10 11 12 14 16 17 16 15 15 17 18 19 21 22 24 27 29 32 39 43 42 37 34 36 43 47 44 40 41 41 37 34 34 30 26 28 31 30 27 25 23 21 21 20 19 17 16 14 13
33 32 30 27 22 17 11 7 5 4 3 3 3 3 2 2 2 2 2 2 2 2 1 2 2 2 2 1 2 2 1 1 2 2 3 4 5 6 8 9 10 12 14 15 17 19 17 16 18 19 20 21 21 22 24 26 30 39 46 47 43 38 35 38 43 47 45 42 41 40 36 33 30 27 27 30 30 27 24 23 22 22 21 20 18 16 14 13
39 39 36 30 24 17 11 8 5 4 4 3 3 2 2 2 2 2 2 2 2 2 2 2 1 2 2 1 2 2 1 2 2 2 3 4 4 5 7 8 10 12 13 14 17 20 19 19 21 21 21 20 21 22 23 23 28 39 49 50 45 40 37 36 39 44 44 39 38 39 37 33 30 28 27 29 30 27 24 23 23 23 22 20 18 17 16 14
Wind_Speed
40 40 40 39 39 39 38 38 38 37 36 35 34 34 33 33 33 31 29 27 25 24 23 22 21 20 18 17 17 16 15 13 13 12 10 12 13 12 13 14 17 20 24 28 30 33 35 37 39 40 41 43 44 44 43 42 42 43 44 43 42 41 40 38 37 36 35 34 32 30 27 24 20 19 21 22 27 32 33 35 36 37 39 39 38 36 34 32
42 42 42 42 41 41 41 41 40 40 39 38 37 37 36 36 35 34 32 29 28 27 26 24 24 23 21 21 20 19 18 17 16 14 13 15 14 12 13 13 13 15 18 22 26 29 31 33 35 36 37 39 40 41 42 42 42 44 44 44 43 42 41 40 39 38 38 36 34 32 30 28 25 24 26 29 33 36 37 36 37 38 37 37 35 33 31 29
44 44 44 44 44 43 43 43 43 42 42 41 41 40 39 39 38 37 35 32 31 30 29 28 26 25 25 24 23 22 22 20 19 18 17 17 15 14 15 14 14 14 14 17 20 24 27 29 31 33 34 36 37 39 40 41 42 43 43 43 43 43 42 41 40 40 40 38 37 35 34 33 32 33 35 37 38 39 39 37 37 36 34 32 30 28 26 25
46 47 47 46 46 46 45 45 45 45 45 44 43 43 42 41 41 40 38 35 33 32 31 31 29 29 27 27 27 26 25 23 23 23 20 19 18 17 17 16 15 15 15 15 15 18 21 25 27 29 31 32 34 36 38 39 39 41 42 42 43 42 42 41 41 41 41 40 39 38 37 36 36 38 39 40 39 38 37 35 36 34 30 27 25 23 21 20
49 49 49 49 49 48 48 48 47 47 47 47 46 46 45 44 43 42 41 38 36 35 34 33 32 31 30 30 29 29 28 26 26 27 23 22 22 21 20 19 18 17 17 16 15 15 17 19 22 25 27 28 30 32 34 35 37 38 40 41 41 41 41 41 41 41 41 41 40 39 38 39 39 38 38 37 37 34 32 31 30 28 24 21 18 17 17 16
52 52 52 52 51 51 51 50 50 50 49 49 49 48 48 47 46 45 44 42 39 37 36 36 35 34 33 32 32 32 31 28 30 30 26 25 26 25 23 22 21 20 19 18 17 17 17 17 18 20 22 24 26 27 29 31 33 35 37 38 39 40 40 40 40 41 41 41 40 39 39 39 39 38 37 35 33 29 28 27 25 22 20 16 13 13 14 14
54 54 54 54 54 54 54 53 53 52 52 52 51 51 51 50 49 48 47 45 43 41 39 38 38 37 36 35 35 34 33 32 33 32 30 30 30 29 27 25 24 23 22 21 20 20 18 19 18 18 19 20 21 23 24 26 28 30 32 34 36 37 37 38 39 39 40 39 38 38 38 38 37 36 34 31 28 26 25 24 21 18 16 14 13 12 13 14
57 57 57 57 57 57 56 56 55 55 54 54 54 53 53 52 52 51 50 48 46 44 42 41 40 39 39 38 38 37 34 35 36 33 33 34 33 33 31 29 28 27 25 24 23 22 22 21 19 19 19 18 19 20 20 21 22 24 26 29 30 32 34 35 36 36 36 36 36 34 33 32 31 30 27 25 24 23 22 20 18 16 15 14 13 12 13 15
59 60 60 59 59 59 59 58 58 57 57 56 56 55 55 54 54 53 53 51 49 47 46 44 43 42 41 41 41 39 36 38 39 36 37 37 36 36 35 33 31 30 29 28 26 25 25 24 21 20 19 18 19 20 20 20 20 19 20 21 23 26 29 30 31 32 33 33 32 30 26 24 23 23 22 22 21 20 18 18 17 15 14 14 14 14 14 16
61 61 61 61 61 60 60 60 60 59 59 58 58 57 57 56 56 55 54 54 52 50 49 48 46 45 44 44 44 40 38 41 42 39 39 40 38 38 38 37 35 34 32 31 30 29 28 25 24 22 20 21 22 21 21 20 19 20 19 18 19 21 23 26 27 29 30 30 28 25 21 20 21 21 20 21 20 18 17 16 15 14 13 15 15 15 15 16
62 62 62 62 62 62 62 61 61 61 60 60 60 59 59 58 57 57 56 56 55 53 51 50 49 48 47 48 47 42 40 44 45 42 41 42 41 40 40 40 39 37 36 35 34 32 30 28 27 25 24 25 24 23 23 21 20 21 20 19 19 19 20 21 24 25 26 26 24 21 19 20 21 21 21 20 19 18 16 15 15 14 13 14 14 14 14 16
62 63 63 64 63 63 63 63 63 62 62 62 62 61 61 60 59 59 58 57 57 55 53 52 51 51 51 52 50 44 43 47 47 45 44 43 43 42 42 43 42 41 40 39 37 35 34 32 30 29 28 27 25 25 25 22 21 21 21 21 20 20 19 19 20 23 24 23 22 21 21 20 19 20 21 21 19 18 17 15 15 14 13 13 12 12 12 12
63 64 64 65 65 65 65 65 65 65 65 64 64 64 63 62 61 61 60 59 59 57 56 54 53 53 53 56 53 45 46 49 50 50 47 44 44 45 45 45 44 43 43 43 41 39 38 35 34 33 31 29 28 28 27 24 21 21 22 22 21 21 20 18 19 22 23 24 23 23 22 20 19 21 22 22 20 19 17 15 15 14 13 12 11 11 10 10
65 65 65 66 67 67 67 67 67 67 67 66 66 66 65 65 64 63 62 61 61 59 58 56 55 55 55 59 55 47 48 52 54 53 48 45 44 46 47 47 47 46 45 45 44 43 41 39 37 35 33 33 32 30 28 26 24 24 23 23 23 23 21 20 20 22 24 25 25 25 24 23 21 21 23 22 20 19 17 16 15 14 13 12 11 10 9 9
68 68 68 68 69 69 69 69 69 69 69 69 69 68 67 67 66 66 65 64 63 61 60 58 58 57 57 62 57 51 51 53 56 54 48 47 46 47 50 50 49 49 48 47 46 46 45 43 41 39 38 37 34 32 31 29 28 27 26 26 26 25 23 22 23 23 24 25 27 27 26 24 23 21 22 22 21 19 18 17 16 14 13 13 11 9 9 9
71 72 72 72 71 72 72 72 72 72 72 71 71 70 69 69 68 68 67 66 65 63 62 61 60 59 60 63 60 55 54 54 56 55 52 51 50 50 52 52 51 51 50 49 48 48 47 46 45 43 41 39 37 36 34 32 31 32 31 31 29 27 25 24 24 24 24 25 27 27 26 24 22 21 22 23 22 20 18 18 17 15 13 13 11 9 9 9
76 76 77 76 75 75 76 75 75 75 75 75 74 73 72 71 70 70 69 69 67 66 64 63 63 62 62 64 63 60 57 56 57 57 56 55 53 51 52 53 53 53 52 51 50 49 48 48 48 46 45 42 41 40 36 35 37 38 37 34 32 29 27 25 26 25 24 26 27 26 25 24 23 21 22 23 23 21 19 18 17 15 13 12 10 9 9 10
81 81 82 82 81 80 81 80 79 79 79 78 78 77 76 75 73 72 72 71 70 69 67 66 65 64 65 66 66 65 61 58 58 59 59 59 56 54 53 54 54 54 53 52 52 52 51 50 49 48 47 46 45 43 41 42 44 42 39 36 33 31 28 27 27 26 25 26 26 26 25 24 23 22 22 23 23 22 20 18 17 15 14 12 10 8 9 10
82 84 84 86 86 85 85 85 84 83 84 83 82 81 80 79 77 75 74 74 74 72 71 70 68 67 68 69 70 69 65 61 60 61 62 62 60 57 56 56 55 55 54 54 55 54 53 52 50 49 50 51 50 48 47 47 46 42 39 38 35 32 30 29 28 27 28 28 28 28 26 24 24 23 23 24 24 23 21 19 17 15 14 13 10 8 9 10
82 83 84 86 87 87 88 89 89 88 88 88 87 86 85 83 82 79 78 77 78 77 75 73 71 69 71 73 73 72 68 64 63 63 64 64 62 60 58 57 56 55 55 56 57 56 55 52 50 51 53 54 53 51 50 48 46 43 41 39 37 35 33 32 30 30 30 30 31 30 26 25 26 24 23 24 24 24 22 20 18 16 15 14 11 8 9 10
83 84 85 86 87 87 88 89 89 90 91 91 91 91 90 88 86 85 82 81 82 82 79 77 75 72 75 78 77 74 72 68 65 65 66 66 65 62 60 59 58 57 58 60 59 57 55 51 52 56 57 56 54 53 52 50 48 46 44 42 40 39 38 35 33 33 33 32 34 33 29 27 27 25 24 25 25 25 23 21 20 18 16 14 12 11 10 10
83 84 86 87 89 89 89 90 90 90 91 92 92 93 93 92 91 89 87 85 88 88 84 82 80 76 78 81 80 76 73 70 69 69 69 68 67 64 63 62 60 60 63 62 59 57 53 53 58 61 59 57 56 54 53 52 50 48 46 44 43 43 42 39 36 36 36 36 36 35 33 30 29 27 25 25 27 26 25 23 21 21 18 16 14 13 12 11
84 84 85 87 89 89 90 92 92 92 92 92 92 93 93 94 93 93 91 88 92 94 90 86 84 82 81 84 84 78 73 74 73 73 72 70 69 67 66 64 62 65 65 61 59 57 55 60 64 62 60 59 57 55 54 53 52 50 48 46 46 46 44 43 41 40 39 40 39 37 36 33 30 28 26 27 28 27 26 24 24 23 21 18 16 15 13 13
85 86 87 88 89 89 89 91 93 93 94 94 94 94 93 93 93 93 92 91 93 97 97 92 89 87 85 86 87 81 76 77 77 76 75 73 71 72 69 67 67 67 65 62 61 59 59 65 65 61 60 60 57 55 54 53 52 52 49 48 50 50 48 47 45 43 41 41 40 39 37 34 31 29 29 29 28 27 27 26 26 25 22 21 19 16 15 15
81 83 86 88 90 92 91 92 93 93 93 94 95 95 95 95 94 93 91 92 95 97 98 97 94 92 90 89 90 86 80 80 80 80 79 77 75 75 73 72 70 67 66 66 65 62 64 67 64 61 61 60 58 56 54 54 53 52 51 51 53 52 52 51 48 45 42 41 41 40 38 36 34 31 30 30 28 29 28 27 27 26 24 23 20 18 17 17
78 79 81 83 87 90 91 93 94 95 95 94 94 94 95 95 96 94 92 93 96 96 96 98 98 96 95 92 92 91 86 82 84 86 83 81 80 79 78 75 71 69 69 70 68 65 67 68 64 62 62 61 60 57 56 56 54 53 53 54 55 54 54 53 50 47 44 43 43 42 40 38 37 34 31 30 30 30 29 28 29 28 27 25 22 21 20 19
79 79 80 80 82 85 88 90 92 94 96 96 95 94 94 95 95 94 93 95 98 97 96 97 97 97 98 96 94 94 92 88 89 89 86 85 86 84 82 78 74 73 74 74 69 65 68 70 65 63 64 63 60 58 58 58 55 55 57 57 57 56 57 56 53 50 47 47 45 43 41 39 38 36 32 31 31 31 31 31 32 31 29 27 24 23 22 20
78 79 81 81 82 82 84 86 88 90 92 94 95 95 95 95 95 93 92 93 96 98 97 98 98 98 98 98 96 96 97 95 94 94 92 91 90 88 85 82 80 79 79 77 70 68 73 73 68 68 68 64 62 62 63 61 58 60 61 59 58 59 58 57 55 52 51 49 45 43 42 40 39 39 35 32 32 33 34 34 34 33 31 29 27 25 25 22
76 78 80 82 83 82 83 84 85 86 87 89 90 92 93 94 95 94 93 93 95 95 96 98 100 101 101 100 98 97 97 97 98 100 98 96 94 91 89 87 86 85 83 79 74 74 78 76 73 72 69 65 65 67 66 62 61 64 64 61 60 60 60 58 56 54 52 48 45 44 43 41 40 41 37 33 33 35 38 37 35 34 34 32 29 27 26 25
74 76 79 81 83 83 83 82 83 84 84 84 85 86 88 90 92 93 93 94 94 94 94 97 99 102 104 102 99 97 97 98 101 103 102 99 98 96 94 93 92 88 85 82 78 78 80 79 77 73 69 68 69 70 67 64 65 67 65 62 62 61 60 59 57 56 52 47 45 45 44 43 41 41 40 37 37 39 40 38 36 35 36 35 31 28 27 27
73 75 77 80 82 83 83 83 82 82 82 83 83 83 83 85 87 89 90 92 93 94 96 98 99 100 103 103 100 99 99 100 103 104 104 103 102 101 98 97 94 90 87 84 81 81 83 82 77 73 72 71 72 71 68 66 67 68 65 63 63 62 61 60 58 55 50 46 47 46 45 44 41 42 43 41 41 41 41 39 36 36 38 38 33 29 28 28
73 75 76 78 78 79 79 80 81 81 81 81 82 82 81 82 82 83 85 87 88 91 95 97 99 100 101 100 100 101 102 103 106 105 103 103 102 101 100 99 96 91 88 85 83 84 86 83 79 77 76 74 72 72 70 68 68 68 67 65 64 63 62 59 57 54 50 48 49 49 47 44 42 45 48 44 43 43 42 40 37 37 39 41 36 30 29 28
74 76 77 78 77 75 76 76 77 77 78 78 79 79 80 81 80 80 81 82 83 86 90 94 97 101 101 100 100 102 103 104 107 107 104 102 101 100 100 100 99 95 91 89 89 89 87 85 83 80 77 75 74 73 71 69 69 68 68 66 64 63 61 58 57 55 52 52 54 53 50 46 45 49 51 47 45 45 43 39 36 36 39 41 39 33 29 29
74 75 76 77 75 73 73 73 73 73 73 74 74 75 77 78 78 78 78 79 80 81 84 88 94 99 101 101 101 102 102 103 106 108 107 104 102 101 101 101 101 99 96 96 96 93 91 89 84 79 77 77 77 75 74 73 72 70 69 67 66 63 60 59 59 58 56 57 59 57 52 48 48 52 54 50 47 45 42 37 35 36 37 40 40 35 30 29
72 72 73 73 71 69 68 67 67 68 68 69 69 70 72 73 74 76 76 77 77 77 79 83 89 97 99 100 102 102 102 103 104 106 109 109 106 104 103 103 103 103 102 102 101 97 95 91 86 84 84 82 80 78 78 78 75 73 72 71 66 62 61 62 62 61 60 61 60 57 52 49 52 56 55 52 47 43 40 37 35 36 36 38 40 37 31 29
68 67 67 66 65 63 62 61 62 62 63 64 64 65 67 68 69 70 73 75 74 73 76 79 85 92 95 96 100 102 102 102 103 104 107 110 109 106 105 105 106 107 106 105 102 100 97 93 91 92 91 87 83 82 81 80 77 76 75 69 64 64 66 66 64 63 63 60 57 55 52 52 54 55 53 51 47 42 39 36 35 35 35 35 38 38 32 30
64 62 60 59 58 57 56 56 56 57 58 58 59 61 62 63 65 65 67 71 71 70 72 76 81 88 91 92 96 100 101 103 103 104 106 107 109 109 108 108 109 108 105 101 98 98 96 93 94 94 91 88 86 86 85 82 80 78 74 68 68 71 71 68 66 65 62 58 56 56 55 54 54 53 52 51 47 43 39 37 36 36 34 33 36 39 34 31
61 56 54 53 53 52 51 51 52 53 55 55 54 56 58 59 61 62 62 65 67 66 68 73 78 83 87 90 94 98 101 103 104 105 106 106 107 109 110 111 110 108 104 98 95 96 94 92 94 93 90 88 88 90 88 84 81 78 74 72 75 74 70 67 65 63 60 58 58 59 57 55 54 54 54 52 48 44 41 39 38 36 35 34 36 40 38 34
57 52 50 49 50 49 47 47 48 49 52 53 52 53 55 55 56 58 58 60 62 61 63 69 74 78 83 88 92 96 99 103 104 105 106 106 106 108 110 111 111 109 105 100 98 97 94 92 93 92 89 90 92 93 88 82 79 78 77 77 76 73 70 68 66 64 63 62 61 61 59 55 55 56 56 52 48 45 42 40 39 37 36 36 38 43 42 37
55 50 47 46 47 47 46 45 45 46 48 50 50 51 53 53 53 54 54 55 57 57 59 64 69 73 79 84 89 94 97 101 103 104 105 105 105 106 108 110 110 110 107 103 100 99 95 92 92 92 92 94 96 92 84 79 78 78 77 76 75 73 72 70 67 65 65 64 62 61 58 56 58 59 56 52 48 46 42 40 39 38 38 38 39 45 46 41
54 49 45 44 44 46 46 46 45 45 45 47 46 47 50 51 51 52 52 52 53 54 56 61 65 69 74 80 86 91 95 99 101 102 103 104 105 106 107 107 108 108 108 105 102 99 95 92 91 93 95 95 93 87 82 79 79 79 77 75 74 73 72 70 66 63 63 61 61 60 57 58 60 59 55 51 48 46 43 40 39 38 38 39 41 46 48 44
55 51 45 42 42 44 46 46 45 44 44 45 45 45 47 49 49 49 50 49 50 51 52 57 63 66 70 76 81 86 91 95 98 100 101 103 105 105 106 105 106 107 108 107 104 101 97 93 92 94 94 92 88 84 83 82 82 82 81 79 77 76 74 69 63 61 62 62 61 59 56 57 59 56 53 50 48 46 44 41 40 39 39 41 44 47 48 46
54 53 50 44 42 43 44 44 44 43 42 43 44 44 45 46 46 46 47 47 48 49 49 53 59 63 67 71 77 82 86 91 95 98 100 102 103 104 105 104 104 105 106 106 104 102 99 95 93 94 93 89 86 85 86 85 86 86 84 81 79 76 73 67 64 65 67 65 63 59 57 58 58 54 53 51 48 46 45 42 42 41 40 42 45 47 48 47
50 52 53 50 46 45 45 44 44 43 40 41 42 42 42 43 42 42 43 44 47 48 48 51 57 61 64 68 73 77 81 87 92 96 98 100 102 103 103 102 102 103 104 104 103 102 101 98 95 95 95 92 89 88 88 88 88 87 83 79 76 73 71 68 67 69 68 65 62 58 57 59 58 55 54 52 49 47 46 45 44 43 42 43 45 46 47 47
48 49 51 52 50 48 46 44 43 43 41 39 39 39 40 41 39 39 39 41 44 47 47 50 55 59 61 64 69 73 78 84 90 93 96 98 100 102 102 101 101 102 103 103 102 102 102 100 97 97 97 94 91 89 88 88 86 83 79 75 72 71 70 68 68 68 65 62 60 56 57 59 57 54 54 52 48 48 48 47 45 44 43 42 43 44 45 46
47 46 48 50 51 50 47 43 40 39 38 38 37 36 37 38 37 37 36 37 41 44 46 48 52 56 58 61 66 70 75 82 87 91 94 96 98 100 101 100 100 101 102 102 100 100 101 100 98 98 97 93 91 88 87 86 84 79 76 73 71 71 71 70 68 65 62 61 59 56 57 59 56 53 53 50 48 49 49 46 44 44 43 42 43 44 46 46
47 47 46 46 47 48 48 46 41 37 35 34 34 33 33 34 34 34 34 35 38 41 44 46 50 53 55 57 62 68 73 79 84 89 93 95 97 100 101 100 100 101 101 101 99 97 98 99 99 98 96 92 90 89 87 85 82 78 75 73 72 72 72 70 66 63 63 62 59 57 60 60 56 53 52 49 49 51 48 44 44 45 43 43 43 44 44 43
48 48 47 45 44 45 46 46 44 38 33 32 31 31 31 31 31 31 32 33 35 37 40 42 46 51 52 54 59 65 71 76 82 87 91 94 96 98 100 100 100 100 100 99 97 96 96 98 98 97 95 92 91 89 87 84 80 78 77 74 73 73 71 69 65 64 65 63 60 61 62 60 57 54 51 49 50 52 48 44 45 45 42 41 41 41 42 41
48 49 48 47 45 44 43 42 41 37 33 31 30 29 29 28 28 28 29 30 32 33 36 39 42 47 49 50 55 62 68 73 78 83 88 93 96 98 99 100 100 99 99 98 97 95 95 96 95 95 94 93 92 91 88 85 81 80 78 76 75 74 71 69 68 67 66 64 65 65 64 63 59 54 50 51 52 51 47 45 45 43 40 40 40 41 42 42
48 48 49 48 47 44 42 40 38 35 32 30 29 28 27 26 26 26 26 27 28 30 33 36 39 44 47 48 53 60 66 70 75 80 86 92 96 98 99 100 99 98 98 97 96 95 95 94 93 93 93 93 93 92 90 86 82 80 80 79 78 76 73 72 72 71 69 69 69 68 66 64 60 54 52 53 53 51 47 46 45 42 40 40 41 42 42 41
48 48 49 49 47 44 41 39 37 34 32 30 28 27 25 24 24 24 22 24 25 26 29 33 36 41 45 47 51 57 63 68 72 77 84 90 95 97 98 99 98 98 98 97 96 96 94 92 91 91 92 93 93 92 90 86 81 80 82 83 82 79 76 75 75 75 74 73 72 70 68 66 61 57 54 54 53 51 48 47 46 44 42 42 41 41 42 41
48 49 49 49 47 44 41 40 38 35 32 30 28 26 25 23 22 22 20 20 22 23 26 30 34 39 43 45 49 54 61 66 70 76 82 88 92 95 96 97 97 97 97 97 96 96 94 91 90 90 92 93 92 90 90 87 83 83 85 87 85 82 78 78 79 79 78 75 73 71 70 67 64 61 57 54 53 51 49 49 48 46 44 42 41 40 41 40
Wind_Direction
251 253 254 254 254 254 253 253 253 253 252 252 252 252 254 255 255 253 251 249 248 247 246 247 244 240 240 243 246 247 243 237 238 236 233 233 228 221 218 218 223 225 226 226 226 227 228 229 231 233 235 237 237 237 236 235 234 234 237 239 240 240 240 241 243 246 248 251 252 249 251 252 245 237 231 243 266 278 282 284 287 290 291 293 293 294 293 292
253 253 254 255 255 255 254 254 254 253 253 253 252 252 253 254 254 254 252 250 249 247 246 246 246 242 240 240 241 243 244 241 237 234 235 236 228 226 225 219 219 222 226 227 227 227 228 229 230 231 232 235 236 237 238 237 236 236 237 238 239 240 240 241 243 245 248 252 255 254 253 249 242 243 246 255 270 280 284 287 290 292 291 291 292 292 291 291
254 254 255 256 256 256 256 255 254 254 254 254 253 253 253 254 255 254 253 251 250 248 246 245 246 245 242 241 239 239 241 241 241 234 232 237 231 228 228 222 219 220 222 226 227 228 228 229 231 231 232 233 235 236 238 239 239 239 240 240 241 241 240 240 241 244 248 251 254 255 255 252 248 249 255 264 272 278 282 288 292 291 290 291 292 291 290 291
255 255 256 256 257 257 256 256 255 255 255 255 255 255 255 255 255 255 254 252 250 249 248 246 245 245 244 243 240 238 238 239 243 237 230 236 236 233 231 225 223 222 222 223 226 228 229 229 229 231 232 234 235 237 238 239 239 240 241 242 242 243 242 240 239 241 245 248 251 253 254 255 254 254 259 266 272 278 284 289 290 288 288 289 290 291 291 293
256 257 257 257 257 257 257 257 256 256 256 255 255 255 256 256 256 256 256 254 251 250 249 247 246 245 245 245 242 240 236 237 244 239 231 237 238 234 233 229 225 224 224 222 224 226 227 229 229 229 231 233 235 237 239 239 240 240 241 242 242 243 242 241 240 240 241 245 248 251 253 254 255 258 262 267 273 280 284 286 285 284 286 287 288 291 293 299
258 258 258 258 258 258 258 258 257 257 256 256 256 256 257 257 257 257 257 256 254 251 250 249 247 245 245 245 244 242 238 238 243 238 234 238 238 234 232 232 229 226 224 222 222 224 226 228 228 229 229 230 232 234 237 239 240 241 242 243 243 242 243 242 242 241 241 244 248 251 253 255 257 259 263 268 274 278 280 281 281 281 283 282 283 289 293 297
259 259 259 259 259 259 258 258 258 257 257 256 256 256 257 257 258 258 258 257 256 254 251 250 248 246 245 245 245 243 240 242 242 237 237 239 239 235 232 232 232 229 226 224 224 222 223 226 226 228 230 228 229 231 233 236 239 241 242 243 244 244 243 243 243 242 243 245 248 251 253 256 258 260 263 267 270 274 276 277 277 278 278 278 280 284 289 295
259 260 259 259 259 259 259 258 258 257 257 256 256 256 256 257 257 258 259 258 257 256 253 251 249 247 245 245 245 243 242 245 242 238 240 238 238 238 233 232 233 232 229 227 227 225 224 224 223 227 230 230 230 230 230 232 235 237 241 243 244 243 243 243 243 243 244 244 246 248 251 254 256 259 262 263 266 271 273 272 274 275 277 282 285 288 295 301
259 260 260 259 259 259 259 258 258 257 257 256 256 256 255 256 256 257 258 258 257 256 255 253 251 249 247 245 244 242 244 246 242 240 242 238 236 238 236 233 232 232 232 231 229 228 227 225 223 226 230 232 232 232 231 231 232 232 235 239 242 242 242 241 241 241 240 240 241 242 245 249 252 255 256 258 263 267 269 269 272 273 277 285 289 295 304 308
260 260 260 259 259 259 259 258 258 257 257 256 256 255 255 255 255 256 256 257 256 256 255 254 253 251 250 248 245 242 244 246 242 239 242 241 236 238 239 235 233 233 233 233 231 230 230 229 227 227 229 232 231 231 232 231 232 232 230 232 236 239 239 238 238 237 236 236 237 237 238 240 242 245 249 254 258 261 263 267 270 272 276 283 288 296 307 313
261 260 260 260 260 259 259 258 258 257 257 256 256 255 255 254 254 255 255 255 255 255 254 254 254 252 251 250 246 243 245 247 244 239 241 243 239 237 239 238 235 234 233 233 233 232 231 231 230 229 229 231 232 233 233 230 233 235 231 230 231 233 235 235 235 235 235 234 233 231 230 233 237 241 246 251 255 257 261 266 271 273 276 281 287 296 310 315
262 261 261 261 261 260 259 259 258 257 257 256 256 255 254 254 254 254 254 254 255 254 254 253 254 253 252 251 247 245 247 247 245 241 239 241 241 239 239 239 237 235 234 234 233 233 232 231 231 231 231 232 233 236 234 230 233 239 237 233 232 232 232 231 231 231 230 230 229 227 225 229 238 245 247 250 254 256 259 266 272 275 278 283 290 300 310 317
263 263 262 262 261 261 260 260 259 258 257 256 256 255 254 254 253 253 253 253 254 254 253 253 253 253 253 252 248 245 247 248 246 242 237 238 242 242 240 239 238 236 235 235 233 234 233 232 231 232 233 234 235 236 236 234 236 240 240 238 235 235 234 231 228 226 225 226 226 227 227 229 237 246 249 251 254 256 259 265 271 275 278 285 291 295 303 314
264 263 263 262 262 261 261 260 260 259 258 257 256 256 255 254 253 253 252 252 253 253 253 252 252 251 252 252 248 245 245 247 247 243 238 238 241 243 242 239 238 237 236 236 235 234 234 233 233 232 232 233 234 236 237 238 239 240 242 242 239 236 234 232 229 225 224 226 229 231 233 234 237 243 249 252 255 255 257 264 268 273 277 282 286 287 298 316
265 264 263 262 262 262 261 260 260 259 259 258 257 256 255 255 254 253 253 252 251 251 252 251 251 250 250 251 249 245 243 245 247 245 242 241 240 241 241 239 238 237 236 235 235 235 234 234 233 233 232 232 234 236 236 237 240 241 241 242 241 238 234 233 233 231 228 229 232 234 236 238 238 241 246 251 254 254 256 262 266 270 276 282 286 288 300 317
265 264 264 263 262 262 261 261 260 260 259 258 257 256 256 255 255 254 254 253 251 251 250 250 250 249 249 250 249 245 243 244 246 247 245 241 238 239 240 239 238 237 236 235 235 236 235 234 234 234 233 233 233 234 234 236 239 240 239 239 240 241 238 236 237 236 235 236 237 238 239 241 241 242 247 252 256 256 257 261 266 271 276 283 289 295 305 320
266 265 264 263 262 262 261 260 260 260 259 258 258 257 256 255 254 254 254 253 252 251 250 249 249 249 249 250 249 246 243 243 245 246 246 243 239 238 239 240 238 237 236 236 235 235 235 235 235 234 234 234 234 234 233 234 236 236 236 236 237 239 240 241 241 240 239 242 243 243 242 244 244 245 250 255 258 259 259 262 268 273 275 280 290 302 313 319
266 265 264 264 262 262 261 261 260 259 259 258 258 257 256 255 254 254 254 253 252 251 250 249 248 248 249 249 248 246 243 242 243 245 245 245 241 238 237 238 238 237 236 236 236 235 235 234 234 234 235 235 234 233 231 231 234 234 235 237 237 238 241 245 247 246 245 245 247 248 247 247 248 248 250 255 259 260 261 264 270 274 273 274 286 301 309 311
266 265 265 264 263 262 261 261 260 259 259 258 257 257 256 256 255 253 253 253 253 251 250 249 248 248 248 248 247 246 244 242 242 243 245 245 243 240 238 237 237 237 236 235 235 234 234 234 235 234 234 234 233 233 232 233 235 236 238 239 239 240 241 244 248 251 251 250 250 249 250 251 252 250 250 253 258 261 262 264 268 270 270 269 274 290 297 300
268 267 266 265 264 263 261 260 260 259 258 258 257 257 256 256 255 254 253 253 253 251 250 249 248 247 248 248 247 246 244 242 241 242 243 244 244 242 240 238 236 236 236 235 234 233 233 234 235 235 234 234 234 234 234 235 236 237 238 240 241 240 240 241 245 249 251 252 252 250 249 252 253 252 253 256 259 262 263 265 266 264 264 267 270 274 283 290
268 267 266 266 265 264 263 261 260 259 258 257 257 256 256 255 254 254 253 253 253 251 250 249 247 246 247 247 246 245 245 243 242 242 242 243 243 242 241 239 237 235 234 234 234 233 232 234 236 235 234 233 233 234 235 235 235 235 236 237 239 240 239 238 240 245 248 249 251 250 247 247 252 253 253 256 259 262 264 265 266 264 264 266 267 265 270 282
268 267 266 265 265 264 263 262 261 260 258 257 256 256 255 254 253 253 252 252 253 251 249 248 247 245 246 247 247 245 245 245 243 242 242 242 242 242 241 239 237 235 234 233 234 234 232 233 235 234 233 233 233 233 234 235 235 235 236 237 239 240 239 237 237 241 245 246 247 248 246 244 247 250 252 255 258 261 263 264 265 266 266 264 263 261 262 272
270 268 267 266 265 264 263 262 261 260 259 258 256 255 254 254 253 252 251 251 252 252 249 247 247 246 245 247 248 245 245 246 244 243 242 241 241 241 240 239 237 236 236 233 233 232 231 233 234 232 232 233 233 233 234 235 236 236 236 236 238 239 238 236 235 237 241 245 245 246 246 245 245 249 252 254 257 260 262 265 266 268 269 267 264 261 258 265
271 270 268 267 266 264 263 262 261 260 258 257 256 255 254 253 252 251 250 249 249 251 251 248 246 246 245 246 248 246 244 245 245 245 244 242 241 240 239 238 236 236 236 234 232 230 230 234 234 232 233 233 233 234 235 236 236 236 236 236 238 238 237 236 234 235 239 245 248 248 248 248 248 248 251 253 256 260 262 264 267 269 270 269 268 265 259 261
274 272 271 269 268 266 264 263 262 260 259 257 256 255 254 253 252 251 250 249 248 248 250 250 247 245 244 245 247 246 243 244 245 244 243 241 240 240 239 237 236 236 236 235 232 230 231 234 234 233 233 233 233 233 234 235 236 236 236 237 238 238 237 237 235 235 237 242 248 249 249 249 248 247 250 254 256 258 260 262 265 267 268 268 268 267 260 258
278 276 274 272 270 268 266 264 263 262 260 258 257 256 254 253 252 250 249 249 249 247 247 249 248 246 244 243 245 246 244 242 243 244 243 242 241 239 238 237 236 236 236 235 232 231 233 234 233 233 234 233 232 232 233 234 235 235 236 236 237 237 238 237 236 235 235 238 243 247 248 249 249 247 249 254 256 257 259 261 263 263 264 264 265 264 261 257
281 280 278 275 273 271 269 266 264 263 262 260 258 256 255 253 252 250 249 248 248 248 246 246 247 247 246 243 242 243 243 240 240 242 242 241 241 240 239 238 236 235 235 235 233 232 235 235 233 233 234 233 233 232 233 233 234 235 235 235 236 237 238 237 236 235 234 235 239 243 247 249 251 251 248 251 255 257 258 258 259 260 260 261 261 261 261 259
282 281 279 278 275 273 271 269 266 264 262 261 259 257 255 254 252 250 249 248 247 247 246 246 245 245 245 244 241 240 241 240 239 239 239 239 239 239 238 237 236 235 234 234 232 232 234 234 231 231 232 232 232 232 232 231 232 235 236 235 236 237 238 238 237 236 236 236 238 242 246 248 250 252 248 247 252 255 256 255 255 258 259 259 259 259 261 261
282 281 279 278 277 275 273 271 269 267 265 262 261 259 257 255 253 251 248 247 246 246 245 245 245 244 243 242 241 240 239 240 240 239 239 239 239 239 238 237 236 234 234 233 231 231 233 233 231 230 230 231 232 232 232 231 232 234 235 235 236 237 238 238 238 238 238 238 239 242 245 246 247 250 248 245 247 250 252 252 253 256 258 257 257 257 259 260
283 281 279 278 278 277 276 274 272 271 269 267 264 261 258 256 254 252 249 247 245 245 244 244 243 243 242 241 240 240 239 239 239 239 239 238 238 238 237 236 235 234 234 234 232 232 234 234 233 232 231 230 232 233 233 232 233 235 235 235 236 237 238 239 239 239 238 239 241 242 244 245 245 247 248 244 242 245 248 251 253 256 258 257 255 255 257 259
285 283 281 279 278 278 277 276 275 273 272 270 268 265 261 258 255 253 250 247 245 243 243 243 242 242 242 241 239 237 238 238 238 238 237 237 237 237 237 236 236 235 235 235 234 234 235 235 234 233 232 231 232 234 234 233 234 236 236 236 237 238 239 240 240 241 241 241 244 243 242 243 244 245 245 243 242 244 246 249 251 254 258 258 256 254 255 257
289 287 285 283 281 280 278 277 276 274 272 271 269 267 265 262 258 254 251 247 244 243 241 241 241 241 240 240 239 237 235 236 238 238 237 237 237 237 237 237 237 236 235 235 235 235 236 236 235 233 232 232 232 234 234 234 235 237 237 237 238 239 240 242 242 243 242 242 243 242 239 239 241 243 244 243 243 244 245 246 249 252 257 261 260 257 255 256
293 291 290 288 286 284 282 279 277 274 272 270 268 267 265 263 260 257 253 249 244 241 240 239 239 240 239 238 237 237 234 233 236 238 237 236 236 237 237 237 236 235 233 232 232 232 233 234 234 233 233 233 233 233 234 235 235 237 237 238 238 238 239 241 242 241 240 240 240 238 237 237 239 243 245 243 243 245 247 248 250 253 257 262 264 261 259 258
296 294 292 290 288 286 284 282 279 276 273 271 268 265 264 262 260 258 254 251 246 241 238 237 237 238 237 237 236 235 234 233 232 234 236 235 234 234 235 235 235 234 232 231 231 230 230 232 232 232 233 234 234 233 233 233 233 233 234 234 234 235 236 237 238 237 236 236 237 237 237 237 238 242 245 244 244 246 249 251 251 253 257 262 264 263 260 257
299 297 295 292 291 288 285 283 280 277 275 272 269 266 263 261 259 257 255 252 248 243 238 235 235 235 235 235 235 234 233 233 231 231 233 234 232 231 232 233 233 232 231 230 230 229 229 230 230 230 229 229 230 231 232 232 231 231 232 233 233 234 235 236 236 236 235 236 238 240 239 238 239 242 246 248 248 248 250 252 252 253 255 258 262 262 257 254
303 300 297 295 292 290 287 284 281 278 275 273 271 268 265 262 259 256 255 253 248 244 240 235 233 234 233 232 234 234 233 232 231 230 230 232 232 231 230 231 232 232 231 229 229 228 228 228 228 228 228 227 227 228 229 230 230 231 232 233 233 234 234 234 234 235 236 237 240 242 241 240 242 244 248 250 251 250 249 250 251 251 252 254 258 258 253 249
306 303 300 297 294 291 288 286 283 280 276 273 271 269 266 264 261 257 254 253 249 244 241 237 234 233 232 229 230 232 232 231 230 230 229 230 230 230 229 230 232 232 232 232 231 230 228 227 228 229 229 228 228 228 228 228 228 230 231 232 232 233 233 233 235 236 238 239 240 241 241 241 243 245 246 247 248 248 248 246 245 246 246 247 251 253 249 243
309 306 303 299 295 292 289 287 284 282 279 275 272 269 266 263 262 259 255 253 251 246 241 238 235 232 230 228 227 228 229 230 229 228 228 228 228 229 229 229 230 231 231 231 231 232 230 228 230 231 230 230 230 230 229 229 229 230 230 230 231 233 234 235 237 239 240 240 240 241 241 241 243 244 245 245 246 246 245 245 244 243 242 241 244 248 245 238
311 309 306 302 298 294 291 288 285 282 280 278 275 272 269 265 262 259 256 253 251 247 242 239 235 232 230 228 226 225 226 228 227 226 226 227 227 227 228 228 229 230 230 228 228 230 230 229 230 231 231 231 232 232 232 231 232 232 232 232 233 234 235 235 236 237 238 238 238 240 241 242 242 243 243 244 244 243 242 242 242 242 240 238 239 243 242 235
313 311 307 304 300 296 293 289 286 282 279 277 276 274 271 268 264 261 257 253 250 246 242 240 236 232 230 227 225 224 224 225 226 225 224 225 226 226 227 227 227 228 229 228 227 227 227 228 229 229 229 229 231 232 232 232 233 235 235 236 237 238 238 238 237 238 239 239 239 240 241 241 241 241 243 243 243 242 239 238 238 239 239 238 237 240 242 237
314 312 309 307 304 301 298 295 291 287 283 279 276 273 271 269 266 263 259 254 250 245 241 239 237 232 229 227 225 224 223 223 224 224 223 223 224 225 225 226 226 226 226 226 226 227 226 226 228 229 229 230 231 231 230 229 230 232 233 234 236 236 237 237 237 238 240 240 240 240 240 239 240 241 242 243 242 241 238 235 235 235 237 238 236 238 242 240
318 314 312 311 309 305 302 299 296 292 288 284 280 275 272 270 268 265 261 257 251 246 240 237 236 233 229 227 225 223 222 222 223 223 223 221 222 223 224 224 225 225 225 224 224 225 225 224 225 228 230 231 231 230 229 227 228 229 229 229 230 232 233 233 233 234 236 235 236 236 236 238 240 241 241 240 239 239 237 233 231 232 233 236 236 237 240 241
322 318 315 314 313 309 305 303 299 295 292 288 283 278 274 271 269 266 262 258 253 247 240 236 234 232 229 226 225 223 221 221 221 221 222 221 220 221 222 222 223 224 224 224 223 223 224 223 222 225 228 229 228 229 229 229 228 228 228 228 229 230 231 231 229 230 231 231 232 232 232 235 237 238 238 237 236 237 236 232 230 229 230 233 235 236 238 239
324 322 318 318 318 315 311 310 306 302 298 292 286 282 278 274 271 268 262 257 253 248 241 236 234 231 228 225 224 222 220 220 220 220 220 220 219 219 220 220 221 222 223 223 221 221 222 222 221 223 224 225 225 225 226 228 229 230 229 228 228 230 231 230 229 231 231 231 232 232 232 233 234 235 236 236 234 234 234 233 230 229 228 230 234 236 238 239
326 324 321 320 320 318 315 314 311 308 304 298 291 287 282 278 274 270 263 256 252 249 242 237 234 231 227 224 223 221 219 219 218 218 219 219 217 217 218 218 219 220 222 222 221 220 220 220 220 222 223 223 224 224 225 227 229 230 230 230 229 230 231 231 231 232 234 233 233 232 232 234 234 234 235 236 234 233 234 232 231 231 230 230 234 236 238 240
327 325 324 323 322 320 317 316 314 310 306 301 296 290 285 281 277 272 266 257 251 247 243 237 235 233 228 223 222 220 218 217 217 217 217 218 217 216 216 217 217 218 219 220 219 218 219 219 219 222 223 222 223 224 225 226 227 228 228 229 229 230 231 231 230 231 232 233 232 231 232 233 233 232 234 235 235 235 234 233 233 233 233 232 233 234 236 238
329 327 326 325 324 323 321 320 319 315 309 303 298 293 287 282 278 273 267 259 251 246 243 238 235 233 229 223 220 219 217 216 216 215 215 216 215 215 215 215 215 217 217 218 218 217 218 218 218 220 222 222 223 223 224 225 227 227 227 226 227 228 230 230 230 229 230 231 230 230 231 233 231 230 232 233 235 236 235 233 234 235 235 234 234 234 235 237
330 329 329 329 328 327 325 323 321 318 312 306 300 295 290 285 279 274 268 261 253 247 242 237 234 233 230 224 220 219 217 216 215 214 214 214 214 214 214 214 214 215 215 216 216 216 216 217 218 219 221 222 223 223 223 223 225 226 226 226 225 226 227 229 229 228 229 230 229 229 231 232 230 228 229 231 235 237 235 233 234 235 235 236 235 234 234 234
332 332 333 334 333 331 328 325 323 320 316 311 305 299 294 289 282 276 270 263 255 248 243 236 232 232 230 224 220 218 217 216 215 214 213 213 213 213 213 213 213 213 213 213 214 214 214 215 216 217 218 220 221 222 222 221 221 223 225 226 226 225 224 226 227 227 227 229 229 229 229 230 229 225 225 229 234 236 234 233 235 237 236 235 234 232 231 230
335 336 338 338 337 334 332 330 327 324 320 316 311 305 300 294 287 279 273 266 257 248 243 236 230 230 228 223 219 218 217 216 215 214 212 212 213 212 211 212 211 211 211 211 211 212 213 213 213 215 217 218 219 221 221 219 219 221 223 224 225 224 222 222 224 226 226 226 229 229 229 230 229 224 223 228 232 234 233 233 234 234 233 232 230 231 231 229
338 340 341 341 340 338 337 335 333 330 326 322 317 311 306 301 294 285 276 269 261 249 241 235 228 227 226 222 217 216 216 215 214 213 212 212 212 211 210 210 210 209 209 209 208 210 211 211 211 213 215 217 218 219 220 218 217 219 222 224 224 223 222 221 223 224 225 225 227 229 229 229 228 225 222 226 230 232 233 233 233 231 229 228 228 230 232 231
343 344 345 344 343 342 342 340 338 336 332 327 323 317 312 308 301 293 282 271 264 252 241 234 227 224 224 220 216 215 214 213 212 212 212 212 212 211 209 208 208 208 208 207 206 208 209 209 209 211 214 215 216 217 219 218 215 217 221 223 223 222 222 222 223 224 225 225 225 227 228 228 226 225 222 223 228 231 232 234 233 230 228 227 227 229 232 232